Regional Weather Roundup
Issued by NWS

Home | Current Version | Previous Version | Text Only | Print | Product List | Glossary On
Versions: 1 2 3 4 5 6 7 8 9 10 11 12 13 14 15 16 17 18 19 20 21 22 23 24 25 26 27 28 29 30 31 32 33 34 35 36 37 38 39 40 41 42 43 44 45 46 47 48 49 50
000
ASUS46 KSEW 301610
RWRWA

WASHINGTON REGIONAL WEATHER ROUNDUP
NATIONAL WEATHER SERVICE SEATTLE WA
900 AM PDT SAT MAY 30 2015

NOTE:"FAIR" INDICATES FEW OR NO CLOUDS BELOW 12,000 FEET WITH NO
SIGNIFICANT WEATHER AND/OR OBSTRUCTIONS TO VISIBILITY.

WAZ505-507>509-301700-
SEATTLE, TACOMA, EVERETT, AND VICINITY

CITY           SKY/WX    TMP DP  RH WIND       PRES   REMARKS
EVERETT        MOSUNNY   54  48  80 W8        29.97S
BOEING FIELD   PTSUNNY   56  46  69 SW6       29.98S
RENTON         CLOUDY    54  46  74 SW5       29.98S
SEATAC AIRPORT PTSUNNY   53  45  74 S7        29.99S
JBLM-MCCHORD   PTSUNNY   55  47  75 W6        29.98F
PUYALLUP       CLOUDY    55  48  76 CALM      29.99S
BREMERTON      CLOUDY    52  48  87 SW7       30.00F
JBLM-FT LEWIS  PTSUNNY   54  47  77 VRB6      29.98S
TACOMA NARROWS CLOUDY    51  45  79 S6        30.00R
$$

WAZ001-503-506-510-514-515-301700-
NORTH INTERIOR

CITY           SKY/WX    TMP DP  RH WIND       PRES   REMARKS
BELLINGHAM     SUNNY     57  49  74 S15G24    29.94R
FRIDAY HARBOR  SUNNY     55  47  74 SW6       29.96R
EASTSOUND      SUNNY     57  48  72 S9G16     29.93R
PORT ANGELES   SUNNY     55  46  71 NW12      29.96S
PORT TOWNSEND  CLOUDY    54  48  82 CALM      29.97S
NAS WHIDBEY    MOSUNNY   57  54  89 SW10      30.02R
ARLINGTON      PTSUNNY   57  46  67 S5        29.98S
BURLINGTON     CLOUDY    55  50  82 S6        29.98R
$$

WAZ020-022-039-040-504-511-512-301700-
SOUTHWEST INTERIOR

CITY           SKY/WX    TMP DP  RH WIND       PRES   REMARKS
SHELTON        CLOUDY    51  45  79 SW12      29.97R
OLYMPIA        PTSUNNY   56  46  69 S7        29.99S
CHEHALIS       CLOUDY    55  48  76 CALM      30.00S HAZE
KELSO          CLOUDY    54  45  71 N5        30.03S
VANCOUVER      MOSUNNY   56  46  69 VRB5      29.99S
SCAPPOOSE, OR  CLOUDY    57  46  66 VRB6      29.98S
PORTLAND, OR   PTSUNNY   57  48  72 N6        29.99S
$$

WAZ021-516-517-301700-
WASHINGTON COAST

CITY           SKY/WX    TMP DP  RH WIND       PRES   REMARKS
FORKS          CLOUDY    53  48  83 NW5       29.99S
HOQUIAM        CLOUDY    54  47  77 NW8       30.00R HAZE
ASTORIA, OR    CLOUDY    55  46  71 N9        30.00S
$$

WAZ019-023-024-040-518-519-301700-
CASCADE MOUNTAINS AND COLUMBIA GORGE

CITY           SKY/WX    TMP DP  RH WIND       PRES   REMARKS
TROUTDALE, OR  CLOUDY    56  48  74 VRB3      29.98S
THE DALLES, OR SUNNY     70  54  56 NW10      29.88R
$$

WAZ026-027-041>044-520-521-301700-
EAST SLOPES

CITY           SKY/WX    TMP DP  RH WIND       PRES   REMARKS
OMAK           CLOUDY    66  55  67 N3        29.88S
WENATCHEE      SUNNY     70  56  61 W6        29.86S
ELLENSBURG     SUNNY     73  50  44 NW12      29.87S
YAKIMA         SUNNY     76  51  41 N7        29.87R
$$

WAZ028-034-035-301700-
COLUMBIA BASIN

CITY           SKY/WX    TMP DP  RH WIND       PRES   REMARKS
EPHRATA        SUNNY     71  53  52 NE8       29.85S
MOSES LAKE     SUNNY     71  53  52 CALM      29.85F
PASCO          SUNNY     76  54  46 NW3       29.85S
HERMISTON, OR  MOSUNNY   77  54  44 W10       29.86R
$$

WAZ036>038-301700-
NORTHEAST WASHINGTON

CITY           SKY/WX    TMP DP  RH WIND       PRES   REMARKS
SPOKANE GEIGER PTSUNNY   65  53  65 NE8       29.91F
SPOKANE FELTS  PTSUNNY   69  52  54 S7        29.92S
FAIRCHILD AFB  PTSUNNY   65  54  66 NE10      29.91F
COEURDALENE,ID MOSUNNY   66  55  68 N12       29.93S
DEER PARK      CLOUDY    60  55  83 NE9       29.94S
$$

WAZ029>033-301700-
SOUTHEAST WASHINGTON

CITY           SKY/WX    TMP DP  RH WIND       PRES   REMARKS
PULLMAN        MOSUNNY   69  54  58 E12       29.94S
LEWISTON, ID   PTSUNNY   75  54  47 VRB3      29.89S
WALLA WALLA    SUNNY     75  55  49 W7        29.88R
PENDLETON, OR  SUNNY     73  54  51 S3        29.88F
$$



USA.gov is the U.S. government's official web portal to all federal, state and local government web resources and services.